Temp
47 47 48 48 48 47 47 46 44 44 43 44 44 42 41 41 40 40 39 38 37 37 36 35 35 34 34 33 33 32 32 32 33 33 33 33 32 32 32 31 31 30 30 30 30 30 29 30 29 29 29 29 28 29 29 30 30 29 29 30 30 29
47 47 47 47 47 46 46 44 43 42 43 42 42 42 41 40 39 38 37 37 36 35 35 35 34 33 32 32 32 31 31 32 32 32 31 32 32 31 30 29 29 29 28 28 28 28 28 27 28 28 28 28 27 28 27 28 29 28 28 28 29 29
47 47 47 47 47 46 45 43 42 42 42 42 42 40 39 38 37 37 37 36 35 34 33 33 32 31 31 30 31 30 30 31 30 31 31 31 30 30 29 28 28 28 27 27 26 26 26 26 26 27 26 26 26 26 27 27 27 26 26 27 27 28
46 47 47 47 45 44 43 42 42 41 40 41 41 40 38 37 36 36 36 35 34 33 33 32 31 31 30 29 29 29 30 30 30 30 29 28 29 28 27 27 27 27 26 25 25 25 25 25 25 25 24 24 24 24 24 24 24 24 24 24 23 24
46 46 45 45 44 44 43 41 41 40 40 40 40 38 38 37 36 36 35 34 33 32 32 31 30 30 29 28 29 29 29 29 29 29 27 27 27 28 27 26 26 26 25 24 24 24 23 23 23 23 22 22 22 21 21 22 22 21 20 20 21 22
46 45 44 43 43 42 41 40 41 40 40 39 39 38 37 36 35 35 34 33 32 32 30 29 30 29 29 28 30 28 29 29 28 28 27 26 27 26 26 26 25 25 24 23 23 22 22 22 21 21 21 20 19 19 19 19 19 19 19 19 19 19
44 43 43 43 42 41 40 40 40 40 39 39 38 38 36 35 35 34 33 32 31 30 29 29 29 28 28 28 29 28 27 27 27 27 25 25 24 24 24 24 24 23 22 21 21 21 20 20 20 19 19 19 19 18 18 18 17 17 18 18 18 18
44 43 43 42 42 41 40 40 40 39 39 38 38 36 35 34 34 33 32 31 30 29 28 29 28 28 28 27 27 26 27 26 25 25 24 23 22 21 21 21 20 20 19 19 19 19 19 19 19 19 18 18 18 18 18 17 17 17 17 17 17 17
43 43 43 42 41 41 40 40 39 39 38 37 36 36 34 33 33 32 31 30 29 29 28 28 28 28 27 27 26 26 25 24 23 22 21 20 19 19 18 19 19 19 19 19 19 18 18 18 18 18 17 17 17 18 17 16 16 16 16 17 17 17
44 43 42 42 40 40 39 39 39 38 37 35 35 34 33 32 31 30 30 29 28 29 28 28 28 27 26 26 25 23 22 22 20 19 19 18 17 17 17 17 17 18 18 18 18 19 18 17 18 18 19 19 18 17 16 16 15 16 16 16 17 18
44 43 42 41 40 39 38 38 38 37 36 35 34 33 32 31 30 29 28 28 28 28 28 27 26 25 24 22 21 20 19 18 17 17 16 15 15 15 15 15 16 15 16 17 17 17 18 17 16 18 18 17 17 17 16 16 16 16 15 16 17 18
45 43 42 40 39 38 37 37 36 36 34 33 33 32 31 30 29 27 27 27 27 27 26 25 23 23 21 19 18 17 17 15 15 14 13 12 13 13 14 14 14 15 15 15 17 17 17 17 18 17 18 19 18 18 18 18 18 18 18 17 18 18
45 44 41 40 39 38 37 37 36 35 34 33 31 30 29 29 27 27 26 26 26 25 24 22 21 20 18 17 16 14 13 13 12 11 11 11 11 12 13 14 14 15 16 16 16 16 16 17 17 18 19 20 21 19 18 17 17 18 18 18 18 18
45 43 41 40 39 38 37 36 35 34 32 31 30 29 28 27 26 25 25 26 24 23 22 21 19 17 16 14 13 12 11 10 9 9 10 11 11 12 13 13 14 15 16 16 16 16 16 16 17 19 19 20 21 21 19 18 18 18 18 18 18 19
45 44 43 41 39 38 37 36 34 33 32 30 30 27 25 24 24 24 24 23 22 21 20 19 16 15 13 12 11 10 9 8 8 9 9 9 11 12 12 13 14 14 15 15 15 15 16 16 17 19 20 20 21 22 21 19 19 18 18 19 19 20
47 45 43 41 40 39 38 36 34 34 32 29 26 24 24 23 23 22 21 20 20 19 18 16 14 13 13 11 10 9 8 8 8 10 11 11 11 12 12 12 12 13 14 14 14 14 15 16 17 19 20 21 22 22 22 20 19 19 19 19 19 20
45 43 41 40 38 37 35 34 34 31 27 25 23 23 22 22 21 20 20 18 19 17 16 14 13 12 12 10 9 8 8 8 9 9 10 11 11 11 11 12 11 12 12 12 13 13 13 15 18 19 20 21 22 23 23 20 19 19 18 19 20 21
43 42 40 38 35 34 33 32 30 27 24 23 22 21 20 20 20 19 19 17 17 15 15 13 12 11 10 9 8 7 7 8 8 8 10 10 11 12 12 12 12 11 10 11 12 12 12 14 18 19 19 20 21 23 20 19 19 18 19 19 20 21
44 42 38 36 33 31 30 29 26 23 21 20 20 19 19 19 18 18 18 16 16 14 14 13 11 10 9 8 7 6 6 7 7 9 11 9 10 10 10 10 11 12 11 10 11 11 11 12 15 18 19 21 22 21 19 19 19 19 19 19 20 21
42 39 36 32 29 29 28 25 24 21 20 19 19 18 18 17 18 18 17 16 15 14 13 13 11 9 8 7 5 5 7 8 9 9 9 9 8 9 10 11 10 11 11 10 10 11 10 11 15 18 20 21 22 22 19 19 18 18 18 19 20 21
38 34 32 30 27 27 25 24 22 20 19 18 17 18 17 17 18 17 16 15 14 13 11 10 9 8 6 5 5 5 4 6 7 8 9 9 9 9 10 10 10 10 10 11 10 12 12 11 14 18 20 21 22 22 20 20 18 17 18 19 19 21
32 30 29 27 27 25 24 23 21 19 18 17 18 17 17 17 17 17 16 14 12 10 9 7 6 5 4 4 4 5 5 7 7 8 8 8 10 10 10 10 10 8 9 10 11 11 14 14 15 16 20 21 23 24 21 20 19 17 17 18 18 18
32 30 28 27 25 23 22 21 20 19 18 17 17 16 17 17 16 14 13 11 9 8 7 6 5 3 4 4 4 5 5 7 7 6 6 6 8 8 7 7 7 8 9 12 13 14 15 15 15 16 20 22 23 24 23 20 20 19 19 18 18 19
29 28 27 25 22 22 21 21 20 18 17 17 16 18 18 15 13 11 9 8 7 5 4 4 4 3 3 3 4 4 5 7 5 5 5 8 7 5 5 6 8 9 11 13 14 14 15 17 18 17 19 21 23 23 24 21 21 22 20 19 18 18
26 26 24 22 20 20 21 21 19 16 16 16 16 16 13 11 10 8 7 6 4 3 2 2 2 3 3 3 4 3 4 6 4 4 5 4 4 5 5 7 9 10 10 12 14 15 16 16 17 19 18 21 23 24 25 26 24 25 22 18 16 17
25 22 19 19 18 19 20 20 17 15 16 16 13 12 9 8 7 7 4 3 2 2 1 1 2 3 3 3 4 4 3 3 4 5 6 5 6 7 7 9 10 10 10 11 13 14 16 16 17 19 20 20 23 24 25 26 26 25 21 20 18 18
21 19 17 17 17 18 19 19 17 15 14 12 10 9 7 6 5 3 2 2 1 1 1 1 3 3 3 3 3 4 5 3 4 6 6 6 6 7 7 8 9 9 10 11 11 13 14 16 16 17 19 22 23 24 25 25 25 24 23 18 18 19
19 16 14 15 16 17 17 18 17 15 12 9 9 8 6 4 2 2 1 0 1 0 0 1 1 1 1 2 4 4 6 4 5 6 6 7 8 8 7 7 8 10 11 10 11 12 13 15 15 16 18 20 21 22 23 24 23 22 21 21 19 21
15 14 13 12 14 15 16 16 17 14 10 7 8 7 4 2 2 1 1 0 -0 -0 0 2 3 3 2 2 4 6 6 6 6 5 6 7 7 7 8 8 9 10 10 10 10 11 13 13 15 16 17 19 19 19 20 20 18 20 19 17 17 19
15 13 12 11 12 13 13 12 10 9 8 7 6 4 3 3 2 1 0 -0 0 0 1 2 1 2 4 2 3 5 6 6 5 6 7 7 7 6 7 9 10 10 10 10 11 12 12 13 14 16 16 18 18 19 19 18 16 16 15 15 16 16
14 13 13 12 11 11 10 8 7 6 7 5 3 3 3 2 1 0 -0 0 1 -0 0 1 0 2 2 2 1 3 4 5 5 7 7 9 10 10 10 11 11 12 12 12 12 11 11 13 14 16 21 20 22 19 17 16 15 15 15 17 20 14
14 13 12 11 10 9 7 5 5 5 5 3 2 3 2 1 -0 -0 0 1 1 0 -0 -1 -1 -1 -0 1 2 3 3 5 6 7 8 9 12 15 16 16 13 14 14 13 14 15 13 13 16 21 22 22 22 22 21 20 19 19 17 18 18 14
14 13 10 9 8 7 5 4 4 3 2 2 3 3 1 1 1 1 1 0 0 0 0 1 1 0 1 1 1 2 3 5 7 9 11 12 13 13 15 16 16 16 17 15 13 15 19 20 21 21 21 21 20 20 19 19 18 19 18 18 12 9
12 11 9 8 7 5 4 3 2 1 1 1 2 2 1 2 3 1 1 1 1 -0 0 2 1 0 1 1 1 1 2 4 5 7 11 11 11 13 14 14 15 16 16 16 16 15 14 18 19 19 19 19 19 19 18 18 17 18 18 17 14 7
13 12 9 7 6 4 3 1 1 0 1 1 1 1 1 2 3 1 1 0 -0 -0 -1 0 0 0 0 -1 -0 -0 1 2 2 4 5 8 10 12 13 13 15 15 15 15 16 17 17 17 18 18 18 18 18 18 17 16 16 17 17 14 7 5
12 10 7 6 4 3 2 0 -0 -0 0 0 1 2 2 2 1 -0 -0 -1 0 0 0 0 0 -0 -1 -1 -1 -0 -0 -0 -1 -2 -2 -0 2 4 8 11 13 13 13 14 15 15 16 17 17 17 17 17 17 17 16 14 11 14 15 12 5 5
10 8 6 4 3 2 1 -0 -0 -0 -0 -0 0 1 0 0 -0 -1 -1 -1 0 0 0 0 -0 -2 -2 -2 -2 -2 -2 -2 -2 -2 -2 -2 -3 -2 -1 0 3 7 10 10 11 13 15 16 15 15 15 16 16 15 14 12 7 5 5 6 6 5
8 6 4 3 2 2 1 -1 -1 -1 -1 -2 -1 -1 -1 -2 -1 -1 -1 -2 -2 -1 -1 -3 -3 -2 -2 -2 -3 -2 -2 -3 -2 -3 -3 -3 -4 -4 -3 -1 1 0 4 10 11 13 13 14 14 14 14 14 14 14 12 4 3 3 3 3 4 4
MSLP
1008.31 1008.51 1008.75 1009.23 1009.79 1010.23 1010.79 1011.51 1012.19 1012.67 1013.19 1013.51 1013.79 1014.43 1015.15 1015.87 1016.55 1017.11 1017.71 1018.11 1018.51 1018.95 1019.27 1019.63 1019.99 1020.31 1020.55 1020.75 1020.99 1021.15 1021.15 1021.07 1020.91 1020.83 1020.71 1020.67 1020.71 1020.63 1020.47 1020.35 1020.23 1020.11 1019.95 1019.83 1019.63 1019.51 1019.43 1019.31 1019.15 1018.95 1018.67 1018.51 1018.19 1017.87 1017.55 1017.27 1017.15 1016.95 1016.71 1016.47 1016.35 1016.03
1007.83 1008.11 1008.47 1008.83 1009.27 1009.91 1010.55 1011.23 1011.95 1012.47 1012.87 1013.35 1013.83 1014.55 1015.19 1015.87 1016.43 1016.95 1017.51 1017.99 1018.47 1018.87 1019.23 1019.51 1019.83 1020.11 1020.35 1020.55 1020.67 1020.75 1020.75 1020.71 1020.71 1020.71 1020.63 1020.51 1020.47 1020.35 1020.31 1020.19 1020.11 1019.95 1019.83 1019.63 1019.51 1019.35 1019.27 1019.11 1018.91 1018.75 1018.47 1018.27 1017.95 1017.63 1017.31 1016.99 1016.87 1016.55 1016.27 1016.07 1015.91 1015.71
1007.55 1007.91 1008.27 1008.67 1009.23 1009.83 1010.35 1010.87 1011.43 1011.99 1012.59 1013.07 1013.55 1014.11 1014.91 1015.63 1016.15 1016.67 1017.15 1017.79 1018.27 1018.71 1018.99 1019.31 1019.63 1019.83 1020.07 1020.27 1020.39 1020.47 1020.43 1020.47 1020.51 1020.51 1020.43 1020.39 1020.31 1020.15 1020.11 1020.03 1019.91 1019.75 1019.63 1019.47 1019.31 1019.15 1018.99 1018.87 1018.71 1018.55 1018.35 1018.07 1017.75 1017.43 1017.11 1016.83 1016.63 1016.39 1016.07 1015.83 1015.51 1015.31
1007.27 1007.67 1008.15 1008.47 1009.03 1009.51 1009.95 1010.51 1011.23 1011.67 1012.11 1012.51 1013.15 1013.83 1014.55 1015.15 1015.87 1016.31 1016.87 1017.51 1017.95 1018.35 1018.67 1018.99 1019.23 1019.47 1019.67 1019.91 1020.03 1020.11 1020.11 1020.19 1020.19 1020.23 1020.27 1020.19 1020.07 1019.99 1019.95 1019.83 1019.71 1019.55 1019.43 1019.27 1019.11 1018.95 1018.83 1018.67 1018.55 1018.47 1018.27 1017.95 1017.63 1017.31 1017.11 1016.75 1016.51 1016.31 1016.03 1015.83 1015.43 1015.11
1006.87 1007.31 1007.63 1007.99 1008.35 1008.87 1009.59 1010.31 1010.59 1010.95 1011.59 1012.19 1012.75 1013.31 1014.07 1014.63 1015.31 1015.91 1016.47 1017.11 1017.63 1018.03 1018.35 1018.67 1018.91 1019.11 1019.31 1019.55 1019.55 1019.63 1019.71 1019.79 1019.91 1019.95 1019.99 1019.91 1019.79 1019.75 1019.67 1019.63 1019.51 1019.35 1019.23 1019.11 1018.91 1018.79 1018.67 1018.55 1018.43 1018.27 1018.15 1017.87 1017.63 1017.31 1016.99 1016.75 1016.51 1016.27 1016.03 1015.75 1015.31 1015.03
1006.75 1007.27 1007.55 1007.79 1008.19 1008.71 1009.07 1009.59 1010.15 1010.71 1011.23 1011.79 1012.39 1012.95 1013.63 1014.31 1014.95 1015.55 1016.15 1016.71 1017.19 1017.63 1018.03 1018.31 1018.43 1018.67 1018.87 1018.99 1019.03 1019.19 1019.31 1019.43 1019.55 1019.59 1019.63 1019.59 1019.63 1019.59 1019.51 1019.43 1019.31 1019.23 1019.11 1018.99 1018.83 1018.71 1018.59 1018.43 1018.27 1018.15 1017.95 1017.75 1017.51 1017.23 1016.83 1016.59 1016.43 1016.19 1015.91 1015.59 1015.27 1015.07
1006.51 1006.67 1006.87 1007.23 1007.71 1008.31 1008.83 1009.27 1009.63 1010.11 1010.71 1011.35 1011.91 1012.55 1013.31 1013.95 1014.59 1015.15 1015.71 1016.23 1016.79 1017.27 1017.55 1017.75 1017.95 1018.19 1018.39 1018.51 1018.55 1018.75 1018.95 1019.11 1019.15 1019.15 1019.35 1019.43 1019.43 1019.35 1019.31 1019.19 1019.15 1019.11 1019.03 1018.91 1018.75 1018.55 1018.43 1018.27 1018.11 1017.91 1017.67 1017.43 1017.19 1016.91 1016.59 1016.27 1016.11 1015.87 1015.59 1015.31 1015.11 1014.91
1005.95 1006.35 1006.59 1006.95 1007.39 1007.83 1008.31 1008.79 1009.23 1009.75 1010.39 1010.99 1011.43 1012.19 1013.03 1013.67 1014.19 1014.75 1015.35 1015.91 1016.39 1016.79 1017.11 1017.27 1017.47 1017.67 1017.83 1018.03 1018.23 1018.47 1018.63 1018.79 1018.87 1018.99 1019.11 1019.23 1019.27 1019.27 1019.31 1019.27 1019.19 1019.15 1019.07 1018.87 1018.67 1018.51 1018.31 1018.11 1017.83 1017.55 1017.27 1017.03 1016.75 1016.47 1016.15 1015.87 1015.67 1015.43 1015.11 1014.83 1014.55 1014.31
1005.51 1005.51 1006.03 1006.43 1006.95 1007.47 1007.91 1008.27 1008.71 1009.23 1009.99 1010.71 1011.23 1011.87 1012.55 1013.27 1013.83 1014.47 1015.03 1015.63 1016.03 1016.35 1016.59 1016.75 1016.99 1017.19 1017.47 1017.71 1017.95 1018.15 1018.39 1018.55 1018.67 1018.95 1019.11 1019.15 1019.23 1019.27 1019.23 1019.11 1019.07 1018.95 1018.79 1018.67 1018.51 1018.31 1018.11 1017.83 1017.55 1017.23 1016.95 1016.63 1016.31 1015.95 1015.67 1015.39 1015.15 1014.79 1014.43 1013.95 1013.63 1013.27
1004.59 1005.15 1005.39 1005.99 1006.51 1007.11 1007.67 1007.87 1008.11 1008.67 1009.31 1010.07 1010.83 1011.51 1012.19 1012.87 1013.47 1014.07 1014.71 1015.27 1015.67 1015.87 1016.11 1016.39 1016.67 1016.99 1017.23 1017.51 1017.79 1018.07 1018.31 1018.47 1018.71 1018.87 1018.99 1019.11 1019.15 1019.15 1019.07 1019.03 1018.95 1018.79 1018.67 1018.47 1018.27 1017.99 1017.79 1017.55 1017.15 1016.75 1016.35 1016.03 1015.67 1015.47 1015.19 1014.95 1014.59 1014.07 1013.59 1013.15 1012.75 1012.35
1003.79 1004.27 1004.87 1005.39 1006.11 1006.71 1007.15 1007.59 1008.07 1008.71 1009.39 1009.95 1010.55 1011.19 1011.79 1012.39 1012.99 1013.71 1014.31 1014.87 1015.19 1015.43 1015.79 1016.23 1016.67 1016.99 1017.31 1017.67 1017.87 1018.11 1018.35 1018.59 1018.79 1018.87 1018.95 1019.07 1019.11 1019.07 1018.99 1018.95 1018.83 1018.75 1018.51 1018.27 1017.99 1017.71 1017.43 1017.11 1016.75 1016.31 1015.91 1015.63 1015.27 1014.99 1014.59 1014.23 1013.83 1013.47 1012.95 1012.43 1011.95 1011.51
1002.91 1003.59 1004.31 1004.95 1005.35 1005.91 1006.51 1006.99 1007.47 1008.03 1008.63 1009.47 1010.19 1010.83 1011.51 1012.15 1012.71 1013.31 1013.99 1014.47 1014.75 1015.19 1015.71 1016.15 1016.59 1016.87 1017.27 1017.63 1017.87 1018.11 1018.39 1018.63 1018.75 1018.83 1018.91 1018.99 1018.99 1018.95 1018.87 1018.83 1018.75 1018.55 1018.27 1017.95 1017.63 1017.31 1017.03 1016.71 1016.19 1015.87 1015.59 1015.19 1014.79 1014.31 1013.91 1013.51 1013.11 1012.71 1012.23 1011.71 1011.15 1010.59
1002.11 1002.91 1003.59 1003.95 1004.39 1004.87 1005.51 1005.99 1006.63 1007.43 1008.27 1009.11 1009.83 1010.51 1011.31 1011.83 1012.47 1013.15 1013.71 1014.11 1014.59 1015.19 1015.71 1016.11 1016.47 1016.87 1017.27 1017.51 1017.83 1018.15 1018.51 1018.63 1018.67 1018.79 1018.83 1018.83 1018.79 1018.75 1018.67 1018.55 1018.43 1018.15 1017.83 1017.59 1017.23 1016.95 1016.63 1016.19 1015.79 1015.47 1015.11 1014.67 1014.27 1013.95 1013.55 1013.11 1012.59 1012.15 1011.67 1011.19 1010.63 1009.95
1001.27 1001.87 1002.19 1002.67 1003.39 1004.19 1004.91 1005.55 1006.19 1006.91 1007.71 1008.63 1009.43 1010.23 1011.15 1011.83 1012.39 1013.11 1013.71 1014.03 1014.71 1015.23 1015.63 1015.95 1016.39 1016.83 1017.11 1017.47 1017.83 1018.15 1018.39 1018.55 1018.67 1018.63 1018.55 1018.55 1018.51 1018.39 1018.27 1018.23 1017.95 1017.71 1017.47 1017.15 1016.91 1016.59 1016.19 1015.83 1015.39 1014.99 1014.63 1014.27 1013.91 1013.55 1013.11 1012.55 1011.99 1011.47 1010.99 1010.51 1009.99 1009.35
999.51 1000.07 1000.87 1001.71 1002.63 1003.31 1003.75 1004.47 1005.59 1006.35 1007.07 1008.15 1008.99 1010.19 1011.15 1011.79 1012.39 1013.07 1013.67 1014.23 1014.79 1015.15 1015.55 1015.87 1016.39 1016.71 1017.11 1017.39 1017.71 1018.03 1018.31 1018.47 1018.43 1018.35 1018.31 1018.27 1018.11 1018.07 1017.95 1017.75 1017.63 1017.43 1017.15 1016.87 1016.59 1016.27 1015.91 1015.43 1014.99 1014.63 1014.23 1013.83 1013.39 1012.95 1012.55 1012.07 1011.51 1010.95 1010.31 1009.83 1009.27 1008.67
998.47 999.27 999.87 1000.71 1001.51 1002.31 1003.23 1004.03 1004.75 1005.71 1006.79 1007.99 1009.27 1010.23 1010.95 1011.55 1012.47 1013.11 1013.79 1014.35 1014.83 1015.19 1015.55 1015.95 1016.31 1016.55 1016.87 1017.27 1017.63 1017.87 1018.07 1018.11 1018.07 1017.91 1017.87 1017.87 1017.83 1017.71 1017.63 1017.51 1017.35 1017.11 1016.87 1016.67 1016.43 1016.07 1015.63 1015.19 1014.75 1014.31 1013.79 1013.31 1012.83 1012.39 1011.91 1011.39 1010.91 1010.43 1009.91 1009.39 1008.87 1008.19
998.23 999.31 1000.15 1000.87 1001.67 1002.59 1003.55 1004.51 1005.31 1006.31 1007.59 1008.59 1009.55 1010.27 1010.91 1011.63 1012.35 1013.19 1013.75 1014.39 1014.75 1015.19 1015.55 1015.91 1016.23 1016.47 1016.79 1017.19 1017.55 1017.79 1017.83 1017.79 1017.75 1017.75 1017.63 1017.47 1017.43 1017.43 1017.35 1017.23 1017.11 1016.95 1016.83 1016.63 1016.31 1015.95 1015.51 1014.95 1014.43 1013.87 1013.39 1012.91 1012.35 1011.79 1011.23 1010.83 1010.43 1009.87 1009.23 1008.63 1008.03 1007.43
997.71 998.35 999.27 1000.47 1001.71 1002.71 1003.39 1004.23 1005.19 1006.43 1007.63 1008.67 1009.23 1010.19 1010.79 1011.39 1012.19 1012.99 1013.63 1014.23 1014.67 1015.11 1015.43 1015.79 1016.03 1016.43 1016.71 1016.99 1017.35 1017.59 1017.51 1017.51 1017.55 1017.63 1017.43 1017.35 1017.23 1017.11 1017.11 1017.03 1016.87 1016.75 1016.63 1016.39 1016.15 1015.79 1015.23 1014.63 1014.15 1013.59 1013.11 1012.55 1011.87 1011.27 1010.83 1010.39 1009.79 1009.19 1008.47 1007.79 1007.19 1006.67
997.35 998.19 999.43 1000.63 1001.59 1002.47 1003.27 1004.15 1005.35 1006.43 1007.67 1008.59 1009.35 1009.95 1010.59 1011.27 1012.07 1012.67 1013.31 1013.91 1014.39 1014.87 1015.15 1015.55 1015.87 1016.19 1016.55 1016.91 1017.23 1017.31 1017.39 1017.43 1017.47 1017.39 1017.15 1017.19 1017.03 1016.95 1016.95 1016.87 1016.71 1016.47 1016.27 1016.11 1015.91 1015.55 1014.99 1014.39 1013.87 1013.31 1012.67 1012.03 1011.43 1010.91 1010.35 1009.75 1009.15 1008.47 1007.79 1007.07 1006.51 1005.87
997.79 998.71 999.63 1000.83 1001.79 1002.39 1003.19 1004.23 1005.23 1006.39 1007.43 1008.31 1009.23 1009.83 1010.43 1011.07 1011.59 1012.19 1012.95 1013.51 1014.11 1014.63 1015.07 1015.35 1015.75 1016.11 1016.47 1016.83 1017.07 1017.15 1017.19 1017.23 1017.19 1017.15 1017.03 1016.99 1016.91 1016.87 1016.75 1016.59 1016.39 1016.19 1015.95 1015.79 1015.55 1015.23 1014.83 1014.11 1013.47 1012.91 1012.23 1011.71 1011.19 1010.55 1009.87 1009.27 1008.59 1007.79 1007.07 1006.23 1005.51 1004.95
998.31 999.39 1000.35 1001.23 1002.07 1002.75 1003.43 1004.35 1005.23 1006.11 1006.99 1007.83 1008.71 1009.23 1009.87 1010.51 1010.99 1011.75 1012.47 1013.19 1013.95 1014.55 1015.11 1015.55 1015.87 1016.15 1016.55 1016.79 1016.87 1017.11 1017.35 1017.23 1017.11 1016.99 1016.87 1016.83 1016.75 1016.71 1016.51 1016.35 1016.15 1015.87 1015.67 1015.43 1015.11 1014.71 1014.35 1013.75 1013.07 1012.51 1011.95 1011.39 1010.71 1010.03 1009.39 1008.75 1007.99 1007.03 1006.27 1005.67 1004.83 1004.27
999.47 1000.35 1000.75 1001.23 1001.79 1002.67 1003.47 1004.35 1005.19 1005.75 1006.51 1007.43 1008.03 1008.63 1009.27 1009.83 1010.47 1011.39 1012.35 1013.19 1014.07 1014.67 1015.19 1015.67 1016.07 1016.35 1016.67 1016.75 1016.95 1017.11 1017.11 1016.91 1016.91 1016.83 1016.75 1016.83 1016.59 1016.51 1016.39 1016.31 1016.07 1015.91 1015.51 1015.11 1014.79 1014.31 1013.79 1013.19 1012.59 1012.23 1011.67 1010.95 1010.27 1009.71 1009.11 1008.35 1007.51 1006.51 1005.59 1004.91 1004.27 1003.35
998.95 999.39 1000.19 1001.11 1002.15 1003.11 1003.79 1004.43 1005.07 1005.83 1006.51 1007.03 1007.67 1008.07 1008.67 1009.51 1010.59 1011.63 1012.51 1013.47 1014.27 1014.87 1015.39 1015.79 1016.19 1016.51 1016.55 1016.63 1016.95 1016.91 1016.87 1016.63 1016.67 1016.75 1016.75 1016.75 1016.59 1016.59 1016.59 1016.47 1016.15 1015.71 1015.27 1014.67 1014.15 1013.67 1013.31 1012.99 1012.39 1011.71 1011.15 1010.43 1009.83 1009.19 1008.63 1007.87 1007.03 1006.19 1005.35 1004.47 1003.79 1003.07
999.43 1000.15 1000.95 1001.59 1002.63 1003.39 1004.15 1004.71 1005.27 1005.95 1006.71 1007.07 1007.43 1007.87 1008.75 1009.95 1011.03 1011.99 1012.91 1013.67 1014.43 1015.03 1015.59 1015.87 1016.15 1016.43 1016.39 1016.59 1016.71 1016.67 1016.47 1016.51 1016.75 1016.63 1016.59 1016.47 1016.55 1016.71 1016.59 1016.31 1015.87 1015.39 1014.79 1014.23 1013.79 1013.35 1012.95 1012.51 1012.07 1011.35 1010.63 1010.03 1009.35 1008.75 1008.19 1007.47 1006.51 1005.83 1005.07 1004.07 1003.39 1002.79
999.39 999.95 1000.67 1001.91 1002.83 1003.59 1004.15 1004.67 1005.39 1006.31 1006.79 1007.07 1007.59 1008.59 1009.63 1010.55 1011.43 1012.31 1012.99 1013.75 1014.59 1015.23 1015.63 1015.95 1016.19 1016.15 1016.15 1016.39 1016.39 1016.39 1016.27 1016.35 1016.59 1016.63 1016.55 1016.59 1016.59 1016.47 1016.39 1015.95 1015.51 1015.03 1014.55 1014.03 1013.43 1012.95 1012.63 1012.19 1011.67 1011.07 1010.31 1009.59 1008.95 1008.23 1007.39 1006.67 1005.95 1005.23 1004.87 1004.23 1003.19 1002.43
999.39 1000.27 1001.39 1002.15 1002.71 1003.11 1003.47 1003.91 1005.07 1006.23 1006.83 1007.23 1008.59 1009.39 1010.23 1010.95 1011.63 1012.31 1013.03 1013.75 1014.43 1014.91 1015.39 1015.79 1015.87 1015.79 1015.91 1016.11 1016.07 1016.03 1016.19 1016.39 1016.39 1016.27 1016.07 1016.35 1016.31 1016.11 1016.03 1015.59 1015.27 1014.95 1014.43 1013.83 1013.23 1012.79 1012.35 1011.91 1011.35 1010.67 1009.99 1009.23 1008.47 1007.67 1006.91 1006.19 1005.55 1005.07 1004.63 1003.95 1003.03 1002.19
999.27 1000.51 1001.63 1002.27 1002.63 1003.11 1003.59 1004.03 1004.75 1006.07 1006.71 1008.23 1009.11 1009.67 1010.27 1010.91 1011.59 1012.19 1012.79 1013.39 1013.95 1014.47 1015.03 1015.31 1015.23 1015.43 1015.79 1015.91 1015.87 1015.79 1015.83 1016.19 1016.07 1015.83 1015.87 1016.07 1016.19 1016.15 1015.99 1015.63 1015.23 1014.79 1014.19 1013.59 1013.19 1012.71 1012.19 1011.59 1010.99 1010.23 1009.51 1008.87 1008.07 1007.35 1006.67 1005.95 1005.31 1004.75 1004.35 1003.63 1002.75 1002.15
999.91 1000.79 1001.83 1002.79 1003.07 1003.31 1003.75 1004.43 1004.75 1005.51 1007.11 1008.47 1009.19 1009.59 1010.03 1010.59 1011.23 1011.91 1012.51 1013.03 1013.47 1014.11 1014.67 1014.79 1015.07 1015.43 1015.71 1015.79 1015.55 1015.71 1015.63 1015.87 1015.71 1015.59 1015.75 1015.95 1015.99 1015.99 1015.79 1015.43 1014.95 1014.39 1013.87 1013.55 1013.15 1012.71 1012.03 1011.35 1010.67 1009.95 1009.27 1008.51 1007.67 1006.99 1006.35 1005.75 1005.23 1004.75 1004.15 1003.47 1002.59 1001.71
1000.67 1001.31 1001.67 1002.31 1002.95 1003.11 1003.47 1004.15 1004.87 1005.51 1007.07 1008.15 1008.83 1009.47 1010.03 1010.39 1010.79 1011.67 1012.39 1012.79 1013.35 1013.95 1014.15 1014.07 1014.35 1014.91 1015.43 1015.55 1015.39 1015.39 1015.55 1015.59 1015.51 1015.55 1015.75 1015.87 1015.91 1015.87 1015.55 1015.07 1014.47 1013.99 1013.79 1013.51 1013.07 1012.51 1011.79 1011.19 1010.51 1009.75 1009.07 1008.23 1007.47 1006.79 1006.11 1005.59 1005.15 1004.67 1003.99 1003.19 1002.23 1001.39
999.63 1000.59 1001.35 1001.91 1002.55 1002.95 1003.35 1003.99 1004.99 1006.15 1006.99 1007.87 1008.71 1009.55 1010.03 1010.27 1010.75 1011.39 1012.07 1012.59 1012.99 1013.31 1013.51 1013.63 1014.35 1014.63 1014.75 1015.19 1015.19 1015.07 1015.23 1015.35 1015.39 1015.35 1015.51 1015.71 1015.75 1015.71 1015.31 1014.63 1014.07 1013.83 1013.63 1013.31 1012.79 1012.19 1011.59 1010.99 1010.23 1009.59 1008.87 1007.99 1007.39 1006.71 1006.19 1005.87 1005.43 1004.75 1003.95 1003.07 1002.11 1001.59
998.99 999.75 1000.51 1001.47 1002.27 1002.83 1003.35 1004.19 1005.23 1006.19 1006.83 1007.63 1008.55 1009.23 1009.55 1010.19 1010.99 1011.55 1012.11 1012.47 1012.63 1012.87 1013.27 1013.59 1014.11 1014.27 1014.47 1014.83 1015.11 1015.19 1015.23 1015.19 1014.99 1015.03 1015.39 1015.43 1015.43 1015.19 1014.67 1014.19 1013.79 1013.55 1013.39 1013.07 1012.55 1011.95 1011.35 1010.71 1010.03 1009.39 1008.79 1008.23 1007.75 1007.23 1006.63 1006.11 1005.47 1004.79 1003.99 1003.27 1002.39 1001.95
998.35 999.43 1000.11 1001.15 1001.91 1002.43 1002.99 1004.03 1005.15 1005.99 1006.79 1007.63 1008.39 1008.71 1009.07 1010.27 1011.23 1011.83 1012.19 1012.23 1012.23 1012.55 1013.07 1013.59 1014.07 1014.39 1014.51 1014.51 1014.55 1014.87 1015.11 1015.15 1014.91 1014.95 1015.07 1015.03 1014.75 1014.47 1014.15 1013.83 1013.59 1013.35 1013.07 1012.87 1012.39 1011.99 1011.47 1010.63 1009.87 1009.23 1008.67 1008.23 1007.79 1007.35 1007.03 1006.59 1005.99 1005.19 1004.31 1003.47 1002.83 1002.39
998.63 999.03 999.75 1000.55 1001.35 1001.99 1002.79 1003.87 1004.95 1005.87 1006.83 1007.51 1007.91 1008.23 1008.91 1009.83 1010.71 1011.55 1011.99 1012.03 1011.99 1012.23 1012.59 1013.03 1013.47 1013.87 1014.07 1014.31 1014.67 1014.91 1014.67 1014.39 1014.35 1014.51 1014.59 1014.63 1014.55 1014.43 1014.11 1013.75 1013.55 1013.31 1013.03 1012.67 1012.27 1011.79 1011.23 1010.51 1009.95 1009.47 1008.95 1008.47 1008.03 1007.63 1007.23 1006.75 1006.11 1005.19 1004.47 1003.83 1003.27 1002.59
998.71 998.59 998.83 1000.03 1001.07 1001.95 1002.87 1003.75 1004.75 1005.67 1006.55 1007.11 1007.55 1008.07 1008.55 1008.99 1009.43 1010.43 1011.15 1011.35 1011.63 1012.03 1012.31 1012.51 1013.07 1013.43 1013.67 1013.95 1014.35 1014.51 1014.39 1014.31 1014.39 1014.47 1014.43 1014.43 1014.47 1014.15 1013.91 1013.75 1013.47 1013.19 1012.83 1012.47 1011.99 1011.55 1011.03 1010.43 1009.99 1009.59 1009.15 1008.79 1008.35 1007.91 1007.47 1006.99 1006.39 1005.47 1004.79 1004.27 1003.79 1003.19
996.07 996.75 998.23 999.67 1000.75 1001.79 1002.63 1003.47 1004.63 1005.51 1006.15 1006.71 1007.19 1007.75 1008.27 1008.67 1008.95 1009.67 1010.51 1011.07 1011.35 1011.79 1012.23 1012.43 1012.79 1013.15 1013.39 1013.75 1014.11 1014.43 1014.23 1014.23 1014.19 1013.79 1014.35 1014.35 1014.31 1014.11 1013.83 1013.63 1013.31 1012.95 1012.63 1012.35 1011.91 1011.55 1011.07 1010.51 1010.11 1009.71 1009.39 1009.07 1008.67 1008.19 1007.71 1007.23 1006.75 1005.99 1005.27 1004.59 1004.15 1003.83
995.71 997.35 998.63 999.67 1000.55 1001.35 1002.31 1003.35 1004.47 1005.27 1005.87 1006.51 1007.07 1007.55 1007.91 1008.51 1008.91 1009.55 1010.23 1010.71 1010.95 1011.27 1011.79 1012.19 1012.59 1012.95 1013.35 1013.79 1014.23 1014.31 1014.35 1014.67 1015.19 1015.83 1015.79 1014.83 1013.79 1013.31 1013.23 1013.19 1013.15 1012.99 1012.59 1012.19 1011.91 1011.59 1011.11 1010.67 1010.35 1010.07 1009.75 1009.43 1008.99 1008.51 1007.99 1007.55 1007.15 1006.47 1005.91 1005.43 1005.07 1004.35
996.83 998.03 998.79 999.51 1000.47 1001.31 1002.03 1003.11 1004.19 1004.95 1005.67 1006.31 1006.87 1007.51 1008.35 1009.03 1009.63 1010.11 1010.63 1010.79 1010.71 1010.99 1011.47 1011.95 1012.47 1012.95 1013.35 1013.87 1014.19 1014.39 1014.47 1014.91 1015.55 1015.75 1015.75 1015.83 1016.03 1015.87 1015.47 1014.79 1013.95 1013.47 1013.11 1012.75 1012.39 1011.83 1011.39 1010.95 1010.67 1010.43 1010.11 1009.75 1009.27 1008.79 1008.35 1007.91 1007.19 1006.51 1005.91 1005.27 1004.99 1004.71
997.15 998.39 999.51 1000.11 1000.67 1001.23 1001.95 1003.03 1004.07 1004.87 1005.51 1006.15 1006.75 1007.47 1008.31 1009.11 1009.63 1010.19 1010.75 1011.11 1011.07 1011.19 1011.59 1012.19 1012.67 1012.91 1013.27 1013.71 1014.11 1014.27 1014.59 1015.11 1015.43 1015.63 1015.79 1016.07 1016.31 1016.19 1015.67 1014.99 1014.59 1014.47 1013.87 1013.07 1012.71 1012.19 1011.79 1011.27 1010.99 1010.75 1010.39 1010.07 1009.63 1009.15 1008.75 1008.31 1007.75 1007.35 1006.79 1006.31 1005.67 1005.23
Wind_Speed
12 14 14 13 13 13 13 13 12 12 13 14 15 16 15 14 11 10 9 9 7 7 9 9 8 7 6 5 6 6 7 8 7 7 7 6 7 6 6 6 7 7 7 7 8 9 10 11 12 12 12 12 12 13 13 14 14 15 16 15 15 15
12 13 14 15 15 14 13 13 12 15 15 15 14 13 13 12 12 11 11 9 8 8 7 8 7 6 6 6 6 6 7 7 7 7 7 7 6 6 6 6 7 7 8 7 8 10 11 11 11 12 12 12 12 12 12 12 14 16 17 17 16 14
11 12 12 11 11 11 12 13 16 15 13 15 15 16 14 13 12 11 10 9 9 9 9 8 7 8 6 7 7 7 7 6 6 6 6 6 6 5 6 6 7 7 8 9 10 10 11 11 12 11 12 12 13 13 14 14 15 17 16 16 17 18
10 10 10 10 11 12 15 14 14 15 16 15 15 14 13 13 12 11 11 9 9 10 9 8 7 7 6 7 7 7 6 6 6 5 5 6 6 6 6 7 7 7 9 10 10 11 11 12 13 13 12 13 13 14 11 12 14 16 17 17 18 17
9 11 13 14 15 14 15 14 16 16 17 15 14 14 14 13 12 11 10 10 9 9 8 8 7 7 7 7 6 6 6 5 6 5 5 6 5 6 6 7 8 9 10 10 10 10 11 12 12 12 12 13 14 15 14 13 15 16 17 18 18 18
9 10 12 13 14 15 17 15 15 14 14 14 14 15 15 14 12 11 10 10 9 9 9 8 7 8 7 7 6 6 6 5 5 5 5 5 5 6 6 7 8 9 9 10 11 11 11 12 12 12 12 13 14 14 15 15 15 15 16 18 18 18
11 13 13 14 13 13 14 15 15 15 15 14 14 13 14 12 12 11 11 10 11 10 9 9 8 7 7 7 5 6 5 5 5 4 5 5 6 6 6 7 7 7 8 8 10 11 12 12 12 12 13 13 13 14 15 16 15 15 16 17 18 18
10 10 13 12 13 13 14 14 15 15 14 14 13 14 13 12 11 11 11 10 10 9 9 9 8 8 7 7 6 5 5 4 4 4 4 5 6 6 7 7 6 6 8 9 10 11 12 12 12 13 14 14 14 14 14 15 15 16 17 18 19 19
14 15 13 13 13 13 13 15 15 15 14 15 13 13 13 12 12 11 11 10 10 9 10 9 8 7 7 6 5 4 4 4 3 4 5 5 6 6 7 6 7 7 8 9 10 11 12 12 12 12 13 13 14 15 15 15 16 17 17 18 19 20
13 13 15 14 14 14 13 14 15 16 16 16 14 14 12 10 12 12 11 10 9 9 9 8 8 7 6 5 4 4 3 3 4 4 4 4 6 6 7 6 7 7 7 9 10 11 11 12 12 13 13 13 13 14 15 16 16 17 18 19 20 20
14 15 15 15 15 17 17 15 14 13 12 12 13 13 13 12 12 12 11 10 9 9 9 8 7 6 6 5 4 4 4 4 4 4 4 5 5 5 6 6 7 8 9 9 10 11 11 11 11 10 10 11 13 13 15 16 16 17 17 17 17 18
13 14 14 15 18 18 17 16 16 16 16 15 14 13 12 12 12 12 11 10 9 8 8 8 6 6 5 5 5 4 4 4 4 4 4 5 5 5 5 6 7 8 9 9 10 10 10 10 9 11 17 17 15 16 16 16 17 18 18 19 20 21
13 13 16 18 19 20 18 17 17 16 15 14 14 13 12 11 11 10 10 9 9 8 8 7 7 6 6 5 5 4 4 4 4 4 4 5 5 5 6 6 7 8 8 9 9 10 9 9 9 17 19 21 23 18 17 17 17 17 18 19 20 20
15 17 18 18 18 19 17 17 16 16 16 15 14 12 12 10 10 10 9 9 9 8 8 7 7 7 6 6 5 5 4 4 4 4 4 4 5 5 4 6 7 7 8 7 9 10 10 10 14 20 20 22 23 22 18 17 17 17 19 18 20 19
17 18 17 15 16 18 19 18 16 18 16 15 13 12 12 11 10 9 9 9 9 9 8 7 7 7 6 6 5 4 4 4 4 4 4 5 4 4 5 6 6 7 7 8 9 10 10 11 15 20 22 22 23 24 22 16 17 17 18 19 20 20
11 12 15 16 17 16 16 17 18 15 13 12 12 12 11 12 10 9 9 9 8 8 8 7 7 7 6 6 5 5 4 4 4 4 4 3 4 4 5 5 7 7 7 8 9 10 11 12 15 21 23 23 24 25 22 17 18 17 18 20 19 18
8 9 10 12 13 14 14 13 12 12 11 12 12 10 12 10 11 9 9 9 8 8 8 8 7 6 6 5 5 5 4 4 3 4 4 3 3 4 4 5 6 7 8 9 9 10 11 11 19 22 24 24 25 25 24 17 17 17 17 17 18 19
13 14 13 10 11 11 13 14 12 12 11 10 11 11 10 11 10 10 9 9 9 9 8 8 7 6 6 5 5 5 4 4 3 3 3 3 3 3 4 5 6 7 8 9 10 11 12 12 20 23 24 25 25 27 18 16 16 16 16 18 19 20
10 9 9 12 12 12 13 12 12 12 12 11 10 11 11 11 10 10 10 9 9 8 8 8 7 7 6 6 5 4 4 3 3 3 2 2 3 3 4 5 6 6 8 9 10 11 12 13 18 23 24 24 26 22 16 16 14 15 17 19 19 20
7 9 12 12 12 11 12 13 14 13 13 12 12 12 12 11 11 10 10 9 9 8 8 7 7 6 6 5 5 4 3 3 2 3 2 2 2 4 4 5 6 7 7 9 11 11 13 16 19 24 24 25 26 23 18 16 16 18 19 19 18 17
11 11 11 14 14 13 13 14 15 13 12 12 12 12 13 11 11 11 11 10 9 8 7 6 6 6 6 5 4 4 3 3 3 2 1 1 2 4 5 5 6 7 8 9 11 16 17 15 17 22 24 25 25 22 16 16 16 16 17 17 17 17
13 13 14 15 16 14 16 15 14 17 14 12 12 12 12 12 11 10 9 9 9 8 7 6 6 5 5 5 4 3 3 2 2 1 0 1 2 3 4 5 6 8 9 10 11 12 13 15 16 18 25 25 26 27 19 15 16 17 17 16 17 19
14 16 16 12 12 12 13 12 14 13 11 12 12 12 11 11 10 10 10 9 8 8 7 6 5 5 4 4 3 3 2 2 1 1 1 1 2 3 5 6 7 8 10 10 12 12 14 14 17 19 25 26 27 28 24 16 17 17 17 17 19 18
10 10 10 11 14 13 15 18 21 12 9 10 11 10 10 11 11 10 9 9 8 7 6 6 5 4 4 3 3 3 3 2 1 0 1 1 2 4 5 6 7 8 10 11 12 12 13 15 19 18 23 26 28 28 30 20 17 20 19 22 20 20
13 13 13 11 12 12 13 18 19 18 14 9 10 10 10 10 10 10 10 9 9 7 7 6 6 5 4 3 3 3 2 2 2 1 1 1 3 3 6 8 8 9 11 11 11 11 12 14 14 21 20 25 28 28 28 30 26 31 22 20 20 20
11 11 11 12 12 14 16 20 19 19 17 11 9 10 10 10 10 10 10 9 8 8 6 6 5 5 4 3 3 3 3 1 1 2 2 2 2 3 6 7 8 10 11 10 11 12 12 13 14 18 23 21 27 27 29 30 31 31 22 21 19 20
18 15 13 11 10 15 13 15 21 19 18 10 10 11 12 11 11 10 10 9 9 8 7 6 5 5 4 3 3 3 2 1 1 2 3 2 2 3 5 6 9 9 9 10 12 12 12 13 14 15 16 25 26 27 29 30 31 31 31 21 17 17
16 15 16 12 13 12 15 16 17 22 13 12 10 11 11 12 11 10 10 9 8 8 8 8 6 4 3 2 2 2 2 2 2 3 2 2 2 4 5 7 8 7 9 10 11 12 13 14 13 12 14 17 19 22 27 30 29 29 30 26 20 26
15 18 18 18 12 12 13 17 10 12 13 13 12 11 11 11 12 11 10 9 9 8 7 8 6 5 3 2 2 2 2 2 2 3 2 0 2 4 6 7 7 8 9 10 11 13 13 13 12 13 14 14 16 15 18 20 20 25 25 18 16 19
19 19 18 15 14 12 15 16 13 10 10 11 11 10 11 11 10 11 10 10 8 7 7 6 7 6 4 3 3 3 3 2 3 3 1 1 2 4 6 7 8 9 9 10 11 11 12 13 12 13 14 15 17 17 17 17 17 17 16 16 16 16
17 20 18 15 12 13 13 13 11 11 13 12 11 13 12 10 10 9 10 8 7 7 6 6 6 4 4 4 3 2 2 2 3 3 2 4 4 5 6 7 8 8 8 8 10 11 11 12 13 13 21 20 25 21 18 17 17 18 17 19 24 17
24 19 19 14 14 13 14 13 12 11 10 12 12 10 13 12 10 9 8 6 7 7 7 6 5 5 4 4 3 2 2 4 5 5 3 3 6 9 11 10 7 9 9 9 8 9 12 12 14 24 28 27 28 28 28 26 26 25 21 24 25 17
17 19 21 16 15 14 13 13 13 12 11 12 12 11 11 13 10 7 6 6 5 7 7 6 6 5 4 4 4 2 1 2 3 3 8 9 8 9 10 10 11 13 14 11 8 10 17 20 23 25 25 27 27 28 27 27 26 26 26 26 17 12
20 22 22 16 15 14 12 13 12 12 13 12 11 10 11 10 10 9 7 7 7 8 6 6 6 5 5 4 3 2 2 3 2 2 7 6 4 9 9 7 11 13 14 14 14 14 10 17 22 24 24 25 26 26 27 25 25 25 26 26 21 11
21 15 15 15 15 15 13 14 13 14 15 11 11 12 12 12 10 10 8 7 8 7 7 6 5 4 5 4 3 3 3 4 4 3 2 6 8 3 2 6 13 17 16 16 17 19 19 20 21 24 24 24 25 26 26 25 23 23 25 25 15 13
18 22 18 18 17 16 15 15 14 14 13 11 11 10 11 15 16 11 8 8 9 8 7 6 6 5 5 4 3 3 4 4 3 2 2 6 9 10 7 8 15 18 20 19 19 21 21 22 22 22 23 23 23 25 24 23 16 20 21 19 13 13
26 21 16 19 17 16 15 14 14 13 13 12 12 12 10 9 8 7 7 8 7 7 7 6 6 6 6 5 4 4 5 4 3 1 0 1 3 4 6 8 9 14 17 14 14 19 21 22 22 22 22 22 23 23 23 18 11 15 14 14 13 13
25 17 18 21 17 15 16 14 14 16 14 12 12 12 11 10 9 9 8 7 7 7 7 6 6 6 6 5 5 4 5 4 3 1 1 1 2 4 5 5 5 5 9 15 17 21 20 22 22 21 21 21 22 22 21 13 13 13 14 14 15 14
Wind_Direction
200 201 200 197 197 192 189 182 169 170 170 174 169 167 164 159 160 160 160 162 163 168 173 178 181 187 194 206 214 223 233 236 241 247 255 263 262 262 268 277 283 284 285 284 289 292 289 286 280 279 276 273 271 270 269 267 265 263 262 261 260 259
202 200 197 194 192 185 181 171 167 176 174 169 166 158 156 157 159 157 158 160 160 162 164 174 178 182 193 204 212 224 231 239 246 253 258 260 268 271 276 279 282 283 286 288 290 293 284 280 280 278 276 274 272 272 270 269 267 266 265 266 263 262
197 199 196 193 187 183 176 175 179 177 172 172 166 162 161 159 159 157 157 156 164 165 171 174 176 185 193 204 217 229 238 243 247 253 260 273 270 276 280 277 279 285 284 291 290 286 284 281 280 280 279 276 274 273 274 274 271 271 270 270 270 266
195 193 188 183 177 181 182 178 173 177 175 174 165 161 161 160 160 162 155 158 164 171 174 175 177 184 194 205 216 228 233 242 247 252 264 264 272 275 276 277 281 280 290 291 283 284 282 280 281 281 279 277 278 278 276 275 274 273 272 272 271 271
192 190 189 191 191 188 181 176 181 179 174 167 167 161 164 161 158 157 156 160 166 172 172 175 181 186 196 207 218 225 230 240 248 251 258 266 273 278 275 282 285 290 291 283 284 285 283 281 280 280 278 278 279 280 278 275 275 275 275 274 273 274
184 184 190 192 191 184 184 182 179 174 172 168 163 164 158 158 155 155 156 160 166 168 171 179 182 188 198 207 216 221 230 239 247 254 256 267 277 277 284 284 289 293 293 292 289 286 282 280 279 279 279 278 279 279 279 278 277 275 274 274 275 276
193 198 197 197 192 188 182 180 178 173 172 165 166 161 157 153 155 155 159 164 164 171 176 180 183 190 197 206 212 222 232 241 244 249 264 268 271 278 284 285 286 288 287 288 290 292 287 284 281 280 280 279 277 278 278 278 278 274 273 273 272 273
202 199 201 195 193 187 183 179 176 173 167 168 162 155 155 156 154 157 158 162 166 171 179 180 184 191 196 201 212 220 225 232 246 253 263 271 275 282 279 280 284 286 289 287 289 288 287 287 283 283 285 285 285 280 281 277 273 272 269 268 267 265
208 206 197 198 189 186 184 180 175 170 165 164 162 157 156 155 155 157 159 163 169 172 178 180 184 185 188 194 201 205 216 229 243 254 261 268 272 272 274 277 282 283 285 284 289 290 289 289 288 287 285 284 282 284 281 276 272 267 266 262 261 261
206 200 201 192 190 184 183 184 177 171 168 165 161 159 155 155 155 155 159 163 172 176 176 178 178 179 183 184 186 200 217 229 237 247 253 259 265 267 273 279 282 285 285 287 290 295 293 290 292 291 292 293 290 283 279 273 270 268 266 265 262 259
205 201 195 193 184 186 184 179 174 166 164 159 159 159 158 154 153 155 159 168 173 175 170 167 170 173 172 177 182 196 204 218 236 243 253 256 261 267 270 278 282 283 285 287 289 294 297 293 292 295 297 293 288 283 279 277 272 269 268 268 267 266
205 196 190 187 189 186 183 180 176 173 168 165 162 160 156 153 155 156 162 169 172 164 163 163 161 165 164 170 183 188 200 217 231 239 247 254 260 269 275 278 281 282 284 289 294 297 298 295 290 282 282 285 289 291 290 289 287 286 285 284 284 282
202 191 190 193 190 187 183 180 175 169 165 161 160 157 156 153 150 156 163 166 162 159 158 162 164 164 169 171 178 186 199 220 225 239 247 252 257 263 270 271 276 280 284 289 294 296 290 285 282 287 289 293 295 296 293 291 288 286 284 284 284 283
199 197 197 195 189 183 180 175 171 166 168 162 160 154 149 148 147 153 160 158 156 159 161 162 160 165 171 171 183 188 197 214 228 237 245 251 258 264 265 270 271 280 289 290 295 294 292 289 288 296 296 298 298 297 296 293 292 290 287 284 283 282
201 199 196 187 183 184 185 172 163 172 166 160 156 138 147 147 148 150 156 156 159 161 162 160 164 169 173 179 178 183 197 212 227 234 238 243 252 258 257 268 281 284 293 295 299 297 293 291 291 301 303 303 302 302 301 294 290 287 287 288 287 286
201 197 188 185 186 183 172 168 168 164 150 138 131 140 144 144 147 152 154 155 161 162 162 165 165 173 173 173 177 188 203 208 221 232 241 241 244 248 263 268 275 282 291 298 299 298 297 293 294 304 306 307 306 305 304 297 295 292 290 288 286 284
186 178 179 181 168 158 152 154 149 127 124 135 139 141 142 146 147 153 156 158 162 162 165 166 170 172 170 172 179 191 201 207 220 232 234 230 237 248 266 276 281 288 289 292 294 296 296 292 301 306 306 307 306 305 307 299 293 286 280 280 281 281
188 186 185 149 138 150 153 154 137 134 139 138 140 142 143 145 149 153 156 160 166 168 169 168 170 170 169 171 180 187 199 203 216 229 238 240 249 260 268 276 283 288 289 289 294 296 295 293 301 306 306 304 304 306 305 298 291 286 286 285 287 284
182 169 140 149 154 145 154 137 133 132 134 143 145 143 144 146 151 158 162 164 166 170 168 170 168 166 168 172 178 182 195 200 218 229 226 243 265 278 278 281 285 288 294 295 292 294 292 292 298 301 304 305 307 308 302 299 292 289 290 290 290 289
151 146 150 144 148 149 137 140 142 141 143 145 146 148 149 152 157 159 160 165 166 167 164 166 163 163 168 170 173 176 193 201 224 220 228 250 288 289 286 291 290 287 291 295 292 287 293 296 295 297 302 303 303 305 305 302 298 293 292 288 282 281
148 140 134 146 151 156 143 144 144 141 144 148 151 149 153 161 159 161 162 162 156 158 153 154 161 162 164 165 163 177 197 203 207 226 230 265 283 283 288 294 295 294 294 287 282 286 292 289 293 299 302 301 303 308 306 301 293 287 288 290 291 288
126 143 156 165 165 148 150 148 149 156 150 153 149 153 158 161 158 148 142 140 144 146 147 153 157 159 157 151 158 187 203 193 209 207 343 314 285 297 302 304 301 297 289 289 288 290 288 294 296 297 298 300 303 306 306 305 303 297 289 289 291 294
159 165 167 156 138 142 145 145 144 152 153 148 153 159 153 138 130 132 135 137 138 140 145 145 156 158 150 151 169 185 188 182 197 198 24 295 306 306 304 301 292 296 303 301 299 295 294 292 294 295 297 301 305 307 308 305 304 302 300 301 302 299
143 131 133 140 144 149 155 158 166 153 142 148 157 143 120 120 127 127 130 138 135 134 138 142 148 156 145 159 175 181 166 157 177 137 80 352 330 315 298 302 311 314 307 303 301 295 293 294 295 300 301 302 304 304 305 304 303 308 309 307 303 301
157 160 148 141 137 142 156 164 162 143 134 141 123 116 120 123 124 128 131 129 129 134 142 145 153 149 142 167 181 163 152 167 162 150 110 34 341 319 320 326 324 319 313 306 304 301 298 298 297 299 301 302 306 309 311 312 312 312 313 307 301 301
141 124 129 140 149 155 159 166 153 150 154 130 120 120 119 124 128 131 128 130 135 138 144 151 151 136 142 168 173 151 142 132 143 119 83 34 354 336 330 331 325 319 310 308 309 308 306 305 304 300 298 302 312 314 315 316 315 314 314 309 304 302
152 146 146 151 143 131 144 132 150 156 142 132 131 137 137 136 135 135 134 138 142 144 148 151 142 133 143 169 169 150 149 159 124 98 65 45 352 327 323 318 319 306 305 311 311 309 308 309 304 300 302 313 313 316 319 318 318 317 317 313 306 304
129 135 135 140 147 149 140 155 149 154 146 138 145 147 143 140 136 134 137 139 141 145 150 137 125 128 145 174 153 132 137 140 118 83 62 31 329 315 311 311 299 296 313 310 309 310 310 310 306 305 313 312 316 322 321 322 321 320 318 316 310 310
147 152 152 151 161 149 150 146 153 128 138 149 151 148 142 137 133 130 138 139 139 146 150 137 138 142 153 164 148 138 146 160 122 95 81 290 295 304 304 297 304 317 316 311 311 311 312 312 311 318 319 317 325 325 326 328 326 323 323 320 318 323
161 161 156 152 156 152 142 137 132 137 134 140 143 139 138 132 137 140 145 144 144 147 146 131 132 142 146 149 153 149 159 160 140 116 154 230 286 292 300 309 317 318 316 313 311 312 317 316 317 323 322 329 332 331 332 331 329 329 328 326 326 336
162 161 157 152 150 145 142 135 134 141 146 142 139 146 139 131 127 124 134 141 139 133 131 127 142 149 141 144 135 146 173 183 151 141 206 240 235 260 289 304 310 314 312 313 312 317 316 319 324 326 331 333 334 336 337 336 334 333 335 334 338 338
153 158 154 151 154 152 145 138 137 138 140 140 147 144 130 131 132 133 142 151 140 132 133 132 137 142 144 134 125 137 173 198 193 203 219 261 287 306 314 314 313 318 320 314 313 322 321 321 325 331 335 337 338 340 342 341 339 339 344 347 345 337
166 157 153 159 157 147 137 135 140 138 140 147 152 146 133 135 136 135 144 149 146 146 136 137 137 144 139 135 137 151 135 63 24 257 240 246 279 307 313 325 329 331 329 329 325 328 328 328 335 338 340 341 341 343 345 347 345 348 354 357 351 345
171 173 171 157 152 144 139 134 138 140 144 150 147 144 142 147 142 147 156 149 142 138 133 129 128 134 132 127 129 143 132 106 113 172 203 201 323 316 314 326 338 343 347 344 346 344 331 342 344 344 345 345 344 346 348 351 350 356 359 360 1 0
182 163 141 146 144 141 139 134 139 145 149 145 143 147 146 154 140 137 142 143 140 133 129 129 130 127 122 119 112 103 78 67 37 8 347 206 218 290 293 343 356 356 356 354 355 354 349 349 348 349 348 347 346 347 349 349 348 355 360 358 360 1
126 137 149 146 146 143 140 136 143 148 144 139 142 146 141 143 138 136 146 151 148 138 136 131 130 127 119 113 109 107 95 84 87 65 330 336 338 342 339 352 1 0 356 354 355 353 352 354 353 350 349 348 348 349 348 348 345 350 358 7 3 356
148 148 145 140 136 139 136 134 141 142 142 140 139 136 133 134 128 120 104 116 127 125 128 127 127 125 119 121 121 115 105 106 106 115 41 345 326 315 314 312 328 342 354 354 355 353 354 355 353 350 348 348 348 352 349 345 348 356 352 358 3 354
141 141 142 146 145 145 136 135 141 147 146 138 135 130 134 136 133 130 137 137 121 116 118 120 126 126 123 128 123 115 110 113 133 149 169 228 254 270 290 294 318 313 315 352 359 358 354 353 350 348 348 349 351 354 355 359 357 352 353 352 354 350